This demonstration page uses our WeatherBlox Daily Observations layout. Learn more.

Left ArrowRight Arrow

41.86663, -103.66717

Hourly Observations for June 23, 2022

Temp ( °F °C ) Dew Point ( °F °C ) Humidity (%) Winds ( mph kmh ) Pressure ( in mb ) Visibility ( mi km ) Precip ( " mm )
12:53 am 00:53 Clear 67 19.4 53 11.7 61 61 ESE 9 15 29.87 1012 10 16 0.00 0.00
1:53 am 01:53 Clear 66 18.9 54 12.2 65 65 ESE 12 19 29.85 1011 10 16 0.00 0.00
2:53 am 02:53 Clear 62 16.7 53 11.7 73 73 E 8 13 29.85 1011 10 16 0.00 0.00
3:53 am 03:53 Clear 61 16.1 53 11.7 75 75 E 7 11 29.85 1011 10 16 0.00 0.00
4:53 am 04:53 Clear 58 14.4 52 11.1 81 81 ESE 6 9 29.85 1011 10 16 0.00 0.00
5:53 am 05:53 Sunny 59 15 52 11.1 78 78 E 8 13 29.84 1011 10 16 0.00 0.00
6:53 am 06:53 Sunny 63 17.2 53 11.7 70 70 E 7 11 29.84 1011 10 16 0.00 0.00
7:53 am 07:53 Sunny 69 20.6 52 11.1 55 55 E 6 9 29.84 1011 10 16 0.00 0.00
8:53 am 08:53 Sunny 75 23.9 51 10.6 43 43 W 5 7 29.84 1011 10 16 0.00 0.00
9:53 am 09:53 Sunny 83 28.3 41 5 23 23 WNW 8 13 29.82 1010 10 16 0.00 0.00
10:53 am 10:53 Sunny 87 30.6 40 4.4 19 19 WNW 9 15 29.81 1010 10 16 0.00 0.00
11:53 am 11:53 Sunny 90 32.2 42 5.6 19 19 WNW 8 13 29.80 1009 10 16 0.00 0.00
12:53 pm 12:53 Sunny 95 35 36 2.2 13 13 WNW 5 7 29.77 1008 10 16 0.00 0.00
1:53 pm 13:53 Sunny 97 36.1 30 -1.1 9 9 NW 9 15 29.75 1007 10 16 0.00 0.00
2:53 pm 14:53 Sunny 98 36.7 27 -2.8 8 8 VRB 6 9 29.74 1007 10 16 0.00 0.00
3:53 pm 15:53 Sunny 95 35 29 -1.7 9 9 WNW 10 17 29.74 1007 10 16 0.00 0.00
4:53 pm 16:53 Sunny 97 36.1 28 -2.2 9 9 NW 10 17 29.73 1007 10 16 0.00 0.00
5:53 pm 17:53 Sunny 96 35.6 28 -2.2 9 9 NW 12 19 29.73 1007 10 16 0.00 0.00
6:53 pm 18:53 Sunny 89 31.7 30 -1.1 12 12 N 7 11 29.74 1007 10 16 0.00 0.00
7:53 pm 19:53 Sunny 84 28.9 34 1.1 17 17 N 7 11 29.74 1007 10 16 0.00 0.00
8:53 pm 20:53 Clear 77 25 37 2.8 24 24 NNE 9 15 29.75 1007 10 16 0.00 0.00
9:53 pm 21:53 Clear 74 23.3 38 3.3 27 27 NNE 10 17 29.75 1008 10 16 0.00 0.00
10:53 pm 22:53 Clear 72 22.2 37 2.8 28 28 WNW 7 11 29.76 1008 10 16 0.00 0.00
11:53 pm 23:53 Clear 67 19.4 40 4.4 37 37 NNW 5 7 29.76 1008 10 16 0.00 0.00

Powered by AerisWeather